St. Marys, AK

6:18 PM AKST on December 17, 2017 (GMT -0900)
Saint Mary's

Weather History for PASM - April, 2013

Change the Weather History Date:

Wednesday, April 24, 2013

  Actual Average Record
Temperature  
Mean Temperature 24 °F -  
Max Temperature 30 °F 35 °F 62 °F (2016)
Min Temperature 19 °F 23 °F 6 °F (1999)
Degree Days  
Heating Degree Days 40    
Moisture  
Dew Point 22 °F    
Average Humidity 89    
Maximum Humidity 100    
Minimum Humidity 80    
Precipitation  
Precipitation 0.00 in - - ()
Sea Level Pressure  
Sea Level Pressure 30.39 in    
Wind  
Wind Speed 7 mph (NNW)    
Max Wind Speed 18 mph    
Max Gust Speed 20 mph    
Visibility 7 miles    
Events      
Averages and records for this station are not official NWS values.
T = Trace of Precipitation, MM = Missing Value Source: NWS Daily Summary

Daily Weather History Graph

Daily Weather History Graph

Search for Another Location

Airport or City:

Trip Planner

Search our weather history database for the weather conditions in past years. The results will help you decide how hot, cold, wet, or windy it might be!

Date:

Astronomy

Apr. 24, 2013 Rise Set
Actual Time 6:59 AM AKDT 10:44 PM AKDT
Civil Twilight 6:04 AM AKDT 11:40 PM AKDT
Nautical Twilight 4:39 AM AKDT 1:08 AM AKDT
Astronomical Twilight Sun does not rise Sun does not rise
Moon 9:56 PM AKDT (4/24) 6:30 AM AKDT (4/24)
Length of Visible Light 17h 36m
Length of Day
15h 45m
Waxing Gibbous, 99% of the Moon is Illuminated
Apr 24
Waxing Gibbous
Apr 25
Full
May 2
Last Quarter
May 9
New
May 17
First Quarter

Hourly Weather History & Observations

Time (AKDT) Temp. Windchill Dew Point Humidity Pressure Visibility Wind Dir Wind Speed Gust Speed Precip Events Conditions
12:16 AM 21.2 °F 13.6 °F 17.6 °F 86% 30.45 in 10.0 mi NNW 5.8 mph - N/A   Clear
12:36 AM 21.2 °F 13.6 °F 17.6 °F 86% 30.45 in 10.0 mi NNW 5.8 mph - N/A   Clear
12:56 AM 21.2 °F 13.6 °F 17.6 °F 86% 30.45 in 10.0 mi NNW 5.8 mph - N/A   Clear
1:16 AM 21.2 °F 16.4 °F 17.6 °F 86% 30.44 in 10.0 mi North 3.5 mph - N/A   Clear
1:36 AM 21.2 °F - 19.4 °F 93% 30.44 in 10.0 mi Calm Calm - N/A   Clear
1:56 AM 21.2 °F 14.9 °F 17.6 °F 86% 30.44 in 10.0 mi NW 4.6 mph - N/A   Clear
2:16 AM 21.2 °F 13.6 °F 17.6 °F 86% 30.44 in 10.0 mi NNW 5.8 mph - N/A   Clear
2:36 AM 21.2 °F 14.9 °F 17.6 °F 86% 30.44 in 10.0 mi North 4.6 mph - N/A   Clear
2:56 AM 21.2 °F - 17.6 °F 86% 30.43 in 10.0 mi Calm Calm - N/A   Clear
3:16 AM 21.2 °F 14.9 °F 19.4 °F 93% 30.44 in 10.0 mi North 4.6 mph - N/A   Clear
3:36 AM 21.2 °F 14.9 °F 17.6 °F 86% 30.44 in 10.0 mi NNW 4.6 mph - N/A   Clear
3:56 AM 19.4 °F 14.3 °F 17.6 °F 93% 30.43 in 10.0 mi NNW 3.5 mph - N/A   Clear
4:16 AM 19.4 °F 14.3 °F 17.6 °F 93% 30.43 in 10.0 mi NW 3.5 mph - N/A   Clear
4:36 AM 19.4 °F - 15.8 °F 86% 30.43 in 10.0 mi Calm Calm - N/A   Clear
4:56 AM 19.4 °F 14.3 °F 17.6 °F 93% 30.42 in 10.0 mi NW 3.5 mph - N/A   Scattered Clouds
5:16 AM 19.4 °F 14.3 °F 17.6 °F 93% 30.42 in 0.2 mi NW 3.5 mph - N/A   Overcast
5:36 AM 19.4 °F 11.5 °F 17.6 °F 93% 30.43 in 0.2 mi NW 5.8 mph - N/A   Overcast
5:56 AM 19.4 °F 12.8 °F 17.6 °F 93% 30.43 in 0.2 mi NW 4.6 mph - N/A   Overcast
6:16 AM 19.4 °F 11.5 °F 17.6 °F 93% 30.43 in 0.2 mi WNW 5.8 mph - N/A   Overcast
6:36 AM 21.2 °F 13.6 °F 17.6 °F 86% 30.43 in 0.2 mi NW 5.8 mph - N/A   Overcast
6:56 AM 21.2 °F - 17.6 °F 86% 30.43 in 0.2 mi Calm Calm - N/A   Overcast
7:16 AM 19.4 °F - 19.4 °F 100% 30.43 in 0.2 mi Calm Calm - N/A   Overcast
7:36 AM 19.4 °F 14.3 °F 19.4 °F 100% 30.41 in 0.2 mi NNE 3.5 mph - N/A   Overcast
7:56 AM 21.2 °F 16.4 °F 19.4 °F 93% 30.41 in 0.2 mi NNE 3.5 mph - N/A   Overcast
8:16 AM 21.2 °F 16.4 °F 21.2 °F 100% 30.41 in 0.2 mi NNE 3.5 mph - N/A   Overcast
8:36 AM 21.2 °F 14.9 °F 21.2 °F 100% 30.42 in 0.2 mi North 4.6 mph - N/A   Overcast
8:56 AM 21.2 °F 13.6 °F 21.2 °F 100% 30.42 in 0.2 mi North 5.8 mph - N/A   Overcast
9:16 AM 23.0 °F 15.8 °F 19.4 °F 86% 30.42 in 0.2 mi North 5.8 mph - N/A   Overcast
9:36 AM 23.0 °F 18.4 °F 19.4 °F 86% 30.41 in 0.2 mi North 3.5 mph - N/A   Overcast
9:56 AM 23.0 °F - 19.4 °F 86% 30.40 in 0.2 mi Calm Calm - N/A   Overcast
10:16 AM 24.8 °F 20.5 °F 21.2 °F 86% 30.40 in 0.2 mi WNW 3.5 mph - N/A   Overcast
10:36 AM 24.8 °F 19.1 °F 21.2 °F 86% 30.39 in 0.2 mi WNW 4.6 mph - N/A   Overcast
10:56 AM 24.8 °F 16.1 °F 21.2 °F 86% 30.39 in 0.2 mi NW 8.1 mph - N/A   Overcast
11:16 AM 24.8 °F 15.3 °F 21.2 °F 86% 30.38 in 1.5 mi NW 9.2 mph - N/A   Overcast
11:36 AM 26.6 °F 16.8 °F 23.0 °F 86% 30.38 in 10.0 mi WNW 10.4 mph - N/A   Overcast
11:56 AM 26.6 °F 16.2 °F 23.0 °F 86% 30.38 in 10.0 mi NW 11.5 mph - N/A   Overcast
12:16 PM 26.6 °F 16.2 °F 23.0 °F 86% 30.38 in 10.0 mi NW 11.5 mph - N/A   Overcast
12:36 PM 26.6 °F 16.2 °F 23.0 °F 86% 30.39 in 10.0 mi NW 11.5 mph - N/A   Overcast
12:56 PM 26.6 °F 15.7 °F 24.8 °F 93% 30.38 in 10.0 mi NW 12.7 mph - N/A   Overcast
1:16 PM 26.6 °F 14.7 °F 23.0 °F 86% 30.38 in 10.0 mi WNW 15.0 mph - N/A   Overcast
1:36 PM 26.6 °F 14.7 °F 23.0 °F 86% 30.38 in 10.0 mi NW 15.0 mph - N/A   Overcast
1:56 PM 26.6 °F 14.7 °F 24.8 °F 93% 30.38 in 10.0 mi WNW 15.0 mph - N/A   Overcast
2:16 PM 26.6 °F 17.5 °F 24.8 °F 93% 30.39 in 10.0 mi WNW 9.2 mph - N/A   Overcast
2:36 PM 26.6 °F 13.8 °F 24.8 °F 93% 30.38 in 10.0 mi NW 17.3 mph - N/A   Overcast
2:56 PM 26.6 °F 15.7 °F 24.8 °F 93% 30.38 in 10.0 mi NW 12.7 mph - N/A   Overcast
3:16 PM 26.6 °F 15.7 °F 23.0 °F 86% 30.38 in 10.0 mi NNW 12.7 mph - N/A   Overcast
3:36 PM 26.6 °F 16.8 °F 24.8 °F 93% 30.38 in 10.0 mi NNW 10.4 mph - N/A   Overcast
3:56 PM 28.4 °F 18.0 °F 24.8 °F 86% 30.37 in 10.0 mi NNW 12.7 mph - N/A   Overcast
4:16 PM 28.4 °F 16.2 °F 23.0 °F 80% 30.36 in 10.0 mi NW 17.3 mph - N/A   Overcast
4:36 PM 28.4 °F 20.4 °F 24.8 °F 86% 30.37 in 10.0 mi North 8.1 mph - N/A   Overcast
4:56 PM 28.4 °F 19.7 °F 24.8 °F 86% 30.37 in 10.0 mi NNW 9.2 mph - N/A   Overcast
5:16 PM 28.4 °F 19.1 °F 24.8 °F 86% 30.36 in 10.0 mi NW 10.4 mph - N/A   Overcast
5:36 PM 28.4 °F 20.4 °F 24.8 °F 86% 30.36 in 10.0 mi NW 8.1 mph - N/A   Overcast
5:56 PM 30.2 °F 20.2 °F 24.8 °F 80% 30.36 in 10.0 mi NNW 12.7 mph - N/A   Overcast
6:56 PM 30.2 °F 19.3 °F 24.8 °F 80% 30.35 in 10.0 mi NNW 15.0 mph - N/A   Overcast
7:16 PM 30.2 °F 19.8 °F 24.8 °F 80% 30.36 in 10.0 mi North 13.8 mph - N/A   Overcast
7:36 PM 30.2 °F 18.9 °F 24.8 °F 80% 30.36 in 10.0 mi North 16.1 mph - N/A   Overcast
7:56 PM 30.2 °F 19.3 °F 26.6 °F 86% 30.35 in 6.0 mi North 15.0 mph - N/A   Overcast
8:16 PM 28.4 °F 17.5 °F 26.6 °F 93% 30.35 in 10.0 mi North 13.8 mph - N/A   Mostly Cloudy
8:36 PM 28.4 °F 19.1 °F 24.8 °F 86% 30.35 in 10.0 mi North 10.4 mph - N/A   Scattered Clouds
8:56 PM 28.4 °F 18.5 °F 24.8 °F 86% 30.35 in 10.0 mi North 11.5 mph - N/A   Mostly Cloudy
9:16 PM 28.4 °F 19.1 °F 24.8 °F 86% 30.35 in 10.0 mi North 10.4 mph - N/A   Scattered Clouds
9:36 PM 28.4 °F 15.8 °F 23.0 °F 80% 30.35 in 10.0 mi North 18.4 mph - N/A   Mostly Cloudy
9:56 PM 26.6 °F 13.8 °F 24.8 °F 93% 30.35 in 10.0 mi North 17.3 mph - N/A   Overcast
10:16 PM 26.6 °F 16.2 °F 24.8 °F 93% 30.36 in 10.0 mi NNE 11.5 mph - N/A   Overcast
10:36 PM 26.6 °F 15.7 °F 24.8 °F 93% 30.36 in 10.0 mi North 12.7 mph 19.6 mph N/A   Overcast
10:56 PM 26.6 °F 16.2 °F 24.8 °F 93% 30.36 in 10.0 mi North 11.5 mph 17.3 mph N/A   Overcast
11:16 PM 26.6 °F 16.8 °F 24.8 °F 93% 30.36 in 10.0 mi NNE 10.4 mph - N/A   Overcast
11:36 PM 26.6 °F 15.7 °F 24.8 °F 93% 30.36 in 10.0 mi North 12.7 mph 18.4 mph N/A   Mostly Cloudy
11:56 PM 24.8 °F 11.9 °F 21.2 °F 86% 30.36 in 10.0 mi North 16.1 mph - N/A   Partly Cloudy